Total_Precipitation_Accumulation
0.00 0.00 0.00 0.00 0.00 0.00 0.00 0.00 0.00 0.00 0.00 0.00 0.00 0.00 0.00 0.00 0.00 0.00 0.00 0.00 0.01 0.05 0.02 0.00 0.00 0.00 0.00 0.01 0.04 0.04 0.02 0.03 0.09 0.40 0.66 0.12 0.03 0.02 0.01 0.06 0.06 0.09 0.19
0.00 0.00 0.00 0.00 0.00 0.00 0.00 0.00 0.00 0.00 0.00 0.00 0.00 0.00 0.00 0.00 0.00 0.00 0.00 0.00 0.00 0.02 0.02 0.00 0.01 0.04 0.03 0.04 0.04 0.02 0.01 0.02 0.05 0.16 0.27 0.08 0.09 0.02 0.02 0.06 0.06 0.10 0.18
0.00 0.00 0.00 0.00 0.00 0.00 0.00 0.00 0.00 0.00 0.00 0.00 0.00 0.00 0.00 0.00 0.00 0.00 0.00 0.00 0.00 0.01 0.00 0.00 0.06 0.10 0.10 0.06 0.02 0.01 0.01 0.01 0.01 0.15 0.06 0.05 0.06 0.10 0.05 0.13 0.16 0.26 0.25
0.00 0.00 0.00 0.00 0.00 0.00 0.00 0.00 0.00 0.00 0.00 0.00 0.00 0.00 0.00 0.00 0.00 0.00 0.00 0.00 0.00 0.02 0.02 0.04 0.06 0.09 0.10 0.03 0.01 0.01 0.00 0.00 0.02 0.11 0.05 0.16 0.03 0.09 0.03 0.16 0.22 0.30 0.28
0.00 0.00 0.00 0.00 0.00 0.00 0.00 0.00 0.00 0.00 0.00 0.00 0.00 0.00 0.00 0.00 0.01 0.00 0.03 0.05 0.01 0.08 0.23 0.21 0.21 0.07 0.02 0.00 0.00 0.00 0.00 0.00 0.00 0.02 0.30 0.56 0.26 0.15 0.07 0.16 0.27 0.26 0.32
0.00 0.00 0.00 0.00 0.00 0.00 0.00 0.00 0.00 0.00 0.00 0.00 0.00 0.00 0.00 0.00 0.00 0.01 0.02 0.09 0.08 0.06 0.08 0.14 0.18 0.02 0.01 0.02 0.00 0.01 0.00 0.00 0.00 0.09 0.37 0.38 0.74 0.55 0.23 0.12 0.12 0.13 0.32
0.00 0.00 0.00 0.00 0.00 0.00 0.00 0.00 0.00 0.00 0.00 0.00 0.00 0.00 0.00 0.00 0.00 0.00 0.03 0.08 0.06 0.04 0.01 0.01 0.02 0.00 0.00 0.01 0.01 0.03 0.01 0.00 0.01 0.15 0.52 1.30 0.74 0.71 0.35 0.17 0.19 0.13 0.26
0.00 0.00 0.00 0.00 0.00 0.00 0.00 0.00 0.00 0.00 0.00 0.00 0.00 0.00 0.00 0.00 0.00 0.00 0.01 0.04 0.06 0.06 0.03 0.03 0.02 0.00 0.00 0.00 0.00 0.01 0.07 0.00 0.04 0.36 0.65 0.75 0.53 0.61 0.34 0.21 0.30 0.36 0.16
0.00 0.00 0.00 0.00 0.00 0.00 0.00 0.00 0.00 0.00 0.00 0.00 0.00 0.00 0.00 0.00 0.00 0.00 0.00 0.01 0.05 0.05 0.10 0.07 0.04 0.01 0.00 0.00 0.00 0.07 0.10 0.03 0.07 0.12 0.80 1.00 0.78 0.73 0.45 0.27 0.16 0.21 0.20
0.00 0.00 0.00 0.00 0.00 0.00 0.00 0.00 0.00 0.00 0.00 0.00 0.00 0.00 0.00 0.00 0.00 0.00 0.01 0.05 0.08 0.07 0.07 0.06 0.02 0.00 0.00 0.00 0.00 0.04 0.04 0.04 0.08 0.18 0.41 0.57 0.85 0.82 0.59 0.28 0.18 0.16 0.16
0.00 0.00 0.00 0.00 0.00 0.00 0.00 0.00 0.00 0.00 0.00 0.00 0.00 0.00 0.00 0.00 0.00 0.00 0.00 0.02 0.07 0.12 0.06 0.06 0.01 0.00 0.00 0.02 0.01 0.00 0.03 0.03 0.05 0.26 0.27 0.54 0.85 1.01 0.90 0.48 0.32 0.18 0.24
0.00 0.00 0.00 0.01 0.01 0.01 0.00 0.00 0.00 0.00 0.00 0.00 0.00 0.00 0.00 0.00 0.00 0.00 0.00 0.01 0.12 0.12 0.09 0.11 0.12 0.13 0.05 0.02 0.06 0.02 0.06 0.12 0.07 0.29 0.33 0.48 0.83 0.87 1.26 1.00 0.65 0.58 0.54
0.00 0.00 0.00 0.01 0.03 0.02 0.00 0.00 0.00 0.00 0.00 0.00 0.00 0.00 0.00 0.00 0.00 0.00 0.02 0.02 0.06 0.06 0.07 0.11 0.08 0.05 0.00 0.11 0.21 0.09 0.05 0.08 0.16 0.41 0.72 0.81 0.67 0.69 1.29 1.32 0.73 0.39 0.59
0.00 0.02 0.09 0.04 0.00 0.03 0.01 0.01 0.00 0.00 0.00 0.00 0.00 0.00 0.00 0.00 0.00 0.00 0.00 0.02 0.06 0.07 0.16 0.18 0.13 0.08 0.04 0.21 0.47 0.51 0.42 0.46 0.33 0.45 0.80 0.86 0.82 0.94 0.90 1.31 0.93 0.58 0.49
0.01 0.03 0.23 0.19 0.07 0.04 0.01 0.02 0.04 0.05 0.00 0.00 0.00 0.00 0.00 0.00 0.00 0.00 0.01 0.03 0.06 0.03 0.14 0.17 0.18 0.12 0.09 0.16 0.43 0.49 0.50 0.53 0.58 0.63 0.59 0.86 0.59 0.96 0.78 1.36 2.69 2.04 1.51
0.00 0.01 0.04 0.08 0.27 0.31 0.29 0.28 0.24 0.23 0.08 0.03 0.01 0.00 0.00 0.00 0.00 0.00 0.00 0.02 0.03 0.07 0.16 0.20 0.23 0.26 0.19 0.20 0.27 0.37 0.54 0.64 0.56 0.55 0.61 0.75 0.73 0.84 1.18 1.39 2.47 2.94 2.53
0.00 0.00 0.00 0.00 0.04 0.22 0.55 0.70 0.49 0.37 0.32 0.26 0.10 0.04 0.01 0.00 0.00 0.00 0.00 0.02 0.03 0.11 0.24 0.37 0.36 0.29 0.22 0.14 0.21 0.40 0.51 0.51 0.49 0.46 0.54 0.50 0.59 0.66 0.90 1.64 2.00 1.44 1.23
0.00 0.00 0.00 0.00 0.00 0.05 0.05 0.15 0.18 0.22 0.22 0.21 0.13 0.02 0.01 0.00 0.00 0.00 0.01 0.00 0.02 0.11 0.21 0.38 0.39 0.25 0.18 0.10 0.13 0.18 0.33 0.48 0.46 0.43 0.40 0.43 0.43 0.44 0.44 0.86 2.80 2.17 1.09
0.00 0.00 0.00 0.00 0.00 0.01 0.06 0.06 0.12 0.14 0.09 0.13 0.19 0.07 0.05 0.00 0.01 0.01 0.00 0.00 0.01 0.04 0.13 0.23 0.31 0.26 0.18 0.13 0.19 0.23 0.29 0.26 0.34 0.38 0.31 0.28 0.35 0.45 0.69 0.73 1.71 1.67 1.14
0.00 0.00 0.00 0.00 0.00 0.05 0.08 0.12 0.16 0.04 0.05 0.06 0.06 0.19 0.12 0.05 0.01 0.04 0.02 0.01 0.04 0.02 0.04 0.05 0.10 0.16 0.13 0.15 0.28 0.37 0.45 0.31 0.34 0.36 0.28 0.29 0.20 0.25 0.40 1.00 1.12 0.95 1.03
0.00 0.00 0.00 0.00 0.01 0.02 0.01 0.04 0.04 0.00 0.01 0.04 0.03 0.09 0.12 0.11 0.08 0.02 0.10 0.13 0.12 0.10 0.03 0.04 0.05 0.04 0.04 0.10 0.36 0.77 0.84 0.60 0.39 0.32 0.24 0.18 0.19 0.19 0.19 0.27 0.65 0.49 0.38
0.00 0.00 0.00 0.00 0.00 0.01 0.01 0.03 0.05 0.04 0.09 0.11 0.15 0.17 0.10 0.09 0.22 0.36 0.19 0.09 0.07 0.25 0.19 0.05 0.08 0.09 0.04 0.07 0.15 0.51 0.83 0.78 0.57 0.45 0.33 0.17 0.12 0.19 0.24 0.23 0.31 0.46 0.47
0.00 0.00 0.00 0.00 0.00 0.02 0.03 0.04 0.07 0.12 0.16 0.11 0.06 0.03 0.02 0.06 0.10 0.32 0.22 0.29 0.42 0.39 0.31 0.21 0.13 0.07 0.10 0.07 0.08 0.19 0.35 0.36 0.28 0.32 0.33 0.20 0.10 0.15 0.17 0.28 0.26 0.31 0.43
0.00 0.00 0.00 0.00 0.00 0.00 0.00 0.01 0.01 0.01 0.00 0.00 0.00 0.01 0.05 0.04 0.07 0.13 0.21 0.16 0.24 0.35 0.39 0.34 0.25 0.16 0.24 0.12 0.09 0.08 0.07 0.05 0.09 0.22 0.28 0.33 0.25 0.14 0.16 0.19 0.20 0.12 0.12
0.00 0.00 0.00 0.00 0.00 0.01 0.01 0.02 0.01 0.01 0.00 0.00 0.01 0.04 0.03 0.02 0.03 0.07 0.13 0.17 0.13 0.17 0.24 0.29 0.23 0.21 0.23 0.19 0.10 0.09 0.08 0.05 0.08 0.12 0.26 0.33 0.35 0.28 0.19 0.20 0.20 0.17 0.09
0.00 0.03 0.01 0.00 0.00 0.00 0.01 0.01 0.01 0.01 0.00 0.00 0.01 0.03 0.03 0.01 0.06 0.10 0.20 0.22 0.20 0.10 0.14 0.14 0.15 0.18 0.18 0.15 0.16 0.12 0.08 0.06 0.04 0.05 0.10 0.20 0.27 0.29 0.23 0.24 0.26 0.18 0.14